"2009-04-26 00:00:30",832644,4.005,108.7,8.79,1.19,7.894,102.0007,4.405,5.733,79.68,0,109.9,13.5,5.17,70.7
"2009-04-26 00:01:00",832645,3.599,121.2,10.14,1.327,6.309,102.0027,4.41,5.603,79.27,0,109.9,13.5,5.18,83.2
"2009-04-26 00:01:30",832646,3.594,118.5,5.921,1.234,6.659,102.0117,4.433,5.59,79.05,0,109.9,13.5,5.20,80.5
"2009-04-26 00:02:00",832647,2.082,109,2.531,0.117,3.925,102.025,4.467,5.469,78.72,0,109.9,13.53,5.23,71.0
"2009-04-26 00:02:30",832648,2.005,105.3,1.583,0.063,3.99,102.0295,4.479,5.469,78.52,0,109.9,13.53,5.25,67.3
"2009-04-26 00:03:00",832649,3.585,111,6.71,1.375,7.216,102.0343,4.491,5.576,78.43,0,109.9,13.5,5.26,73.0
"2009-04-26 00:03:30",832650,3.386,111.4,7.048,1.31,7.047,102.0346,4.492,5.727,78.41,0,109.9,13.5,5.26,73.4
"2009-04-26 00:04:00",832651,2.717,103,9.79,1.333,6.773,102.0346,4.492,5.642,78.17,0,109.9,13.5,5.26,65.0
"2009-04-26 00:04:30",832652,2.01,89.1,7.245,1.106,5.407,102.0346,4.492,5.707,78.08,0,109.9,13.5,5.26,51.1
"2009-04-26 00:05:00",832653,3.376,107.5,8.48,0.982,7.725,102.0366,4.497,5.691,78,0,109.9,13.5,5.26,69.5
"2009-04-26 00:05:30",832654,1.686,93.1,6.958,0.838,4.043,102.0439,4.515,5.503,77.81,0,109.9,13.5,5.28,55.1
"2009-04-26 00:06:00",832655,1.021,85.5,7.078,0.238,4.086,102.0496,4.53,5.533,77.82,0,109.9,13.53,5.30,47.5
"2009-04-26 00:06:30",832656,1.386,67.24,10.63,0.286,3.545,102.0473,4.524,5.537,77.82,0,109.9,13.53,5.29,29.2
"2009-04-26 00:07:00",832657,3.095,96.4,22.77,1.317,7.141,102.0515,4.535,5.756,78.04,0,109.9,13.5,5.30,58.4
"2009-04-26 00:07:30",832658,3.107,94.6,14.77,1.212,6.979,102.0561,4.546,5.783,78.06,0,109.9,13.5,5.31,56.6
"2009-04-26 00:08:00",832659,2.308,101.4,12.56,0.827,5.26,102.0583,4.552,5.729,77.96,0,109.9,13.5,5.32,63.4
"2009-04-26 00:08:30",832660,2.899,86.5,9.84,1.304,6.663,102.0592,4.554,5.806,77.99,0,109.9,13.5,5.32,48.5
"2009-04-26 00:09:00",832661,3.32,69.27,13.07,1.33,6.197,102.0609,4.559,5.747,77.97,0,109.9,13.5,5.33,31.3
"2009-04-26 00:09:30",832662,1.411,45.77,10.88,0.213,3.312,102.0623,4.562,5.554,77.86,0,109.9,13.53,5.33,7.8
"2009-04-26 00:10:00",832663,1.043,36.64,7.216,0.126,3.242,102.0643,4.567,5.573,77.91,0,109.9,13.53,5.34,358.6
"2009-04-26 00:10:30",832664,1.325,32.63,12.64,1.103,4.013,102.0651,4.569,5.619,78.03,0,109.9,13.5,5.34,354.6
"2009-04-26 00:11:00",832665,2.254,33.59,8.8,1.36,6.41,102.0685,4.578,5.753,78.18,0,109.9,13.5,5.35,355.6
"2009-04-26 00:11:30",832666,1.684,26.66,14.34,1.541,5.17,102.0679,4.577,5.612,78.1,0,109.9,13.5,5.34,348.7
"2009-04-26 00:12:00",832667,2.572,36.85,10.24,1.373,6.493,102.0685,4.578,5.761,78.27,0,109.9,13.5,5.35,358.9
"2009-04-26 00:12:30",832668,2.425,16.16,19.78,1.2,6.953,102.0685,4.578,5.825,78.35,0,109.9,13.5,5.35,338.2
"2009-04-26 00:13:00",832669,1.487,38.46,12.42,1.134,4.834,102.0685,4.578,5.741,78.32,0,109.9,13.5,5.35,0.5
"2009-04-26 00:13:30",832670,0.969,36.97,8.51,0.182,2.961,102.0685,4.578,5.586,78.18,0,109.9,13.53,5.35,359.0
"2009-04-26 00:14:00",832671,0.864,30.27,21.84,0.296,2.926,102.0685,4.578,5.596,78.2,0,109.9,13.53,5.35,352.3
"2009-04-26 00:14:30",832672,1.644,19.81,8.86,1.206,5.579,102.0685,4.578,5.742,78.3,0,109.9,13.5,5.35,341.8
"2009-04-26 00:15:00",832673,1.005,14.83,15.05,0.834,4.355,102.0685,4.578,5.702,78.29,0,109.9,13.5,5.35,336.8
"2009-04-26 00:15:30",832674,1.49,7.267,23.1,1.534,5.568,102.0685,4.578,5.655,78.23,0,109.9,13.5,5.35,329.3
"2009-04-26 00:16:00",832675,2.494,355.8,11.22,1.367,5.646,102.0685,4.578,5.638,78.28,0,109.9,13.5,5.35,317.8
"2009-04-26 00:16:30",832676,3.386,358.7,4.846,1.053,8.45,102.0685,4.578,5.923,78.57,0,109.9,13.5,5.35,320.7
"2009-04-26 00:17:00",832677,2.552,5.764,8.11,1.24,7.064,102.0685,4.578,5.801,78.44,0,109.9,13.5,5.35,327.8
"2009-04-26 00:17:30",832678,0.915,15.97,12.42,0.255,3.23,102.0685,4.578,5.615,78.23,0,109.9,13.53,5.35,338.0
"2009-04-26 00:18:00",832679,1.257,32.17,4.887,0.179,2.609,102.0685,4.578,5.606,78.21,0,109.9,13.52,5.35,354.2
"2009-04-26 00:18:30",832680,1.272,28.57,7.885,0.121,3.033,102.0685,4.578,5.689,78.26,0,109.9,13.53,5.35,350.6
"2009-04-26 00:19:00",832681,2.332,17.21,10.87,1.331,5.847,102.0685,4.578,5.707,78.24,0,109.9,13.5,5.35,339.2
"2009-04-26 00:19:30",832682,0.701,12.13,8.32,0.241,4.154,102.0685,4.578,5.62,78.12,0,109.9,13.53,5.35,334.1
"2009-04-26 00:20:00",832683,1.425,29.73,11.14,0.912,4.287,102.0685,4.578,5.676,78.17,0,109.9,13.5,5.35,351.7
"2009-04-26 00:20:30",832684,3.619,48.89,5.631,0.962,7.619,102.0685,4.578,5.889,78.37,0,109.9,13.5,5.35,10.9
"2009-04-26 00:21:00",832685,3.071,53.83,7.132,1.266,7.147,102.0685,4.578,5.831,78.27,0,109.9,13.5,5.35,15.8
"2009-04-26 00:21:30",832686,2.098,42.33,11.08,1.103,4.696,102.0685,4.578,5.633,78.02,0,109.9,13.5,5.35,4.3
"2009-04-26 00:22:00",832687,1.552,39.27,3.109,0.15,3.026,102.0674,4.575,5.613,77.96,0,109.9,13.53,5.34,1.3
"2009-04-26 00:22:30",832688,2.099,40.56,5.249,1.089,5.218,102.0659,4.572,5.767,78.11,0,109.9,13.5,5.34,2.6
"2009-04-26 00:23:00",832689,1.589,34.02,5.472,0.949,4.127,102.0628,4.564,5.662,77.99,0,109.9,13.5,5.33,356.0
"2009-04-26 00:23:30",832690,1.059,36.42,3.94,0.104,3.936,102.0609,4.559,5.596,77.93,0,109.9,13.53,5.33,358.4
"2009-04-26 00:24:00",832691,1.987,39.36,6.526,1.299,6.038,102.0603,4.557,5.862,78.17,0,109.9,13.5,5.33,1.4
"2009-04-26 00:24:30",832692,3.25,36.08,5.775,1.142,7.562,102.0603,4.557,5.876,78.17,0,109.9,13.5,5.33,358.1
"2009-04-26 00:25:00",832693,1.713,15.83,6.772,0.881,4.583,102.0594,4.555,5.759,78.09,0,109.9,13.5,5.32,337.8
"2009-04-26 00:25:30",832694,2.796,19.92,8.21,1.29,5.441,102.0594,4.555,5.662,77.99,0,109.9,13.5,5.32,341.9
"2009-04-26 00:26:00",832695,1.958,14.17,10.83,1.16,4.595,102.0589,4.554,5.723,78.07,0,109.9,13.5,5.32,336.2
"2009-04-26 00:26:30",832696,2.111,18.4,9.07,1.209,4.689,102.0583,4.552,5.638,78.03,0,109.9,13.5,5.32,340.4
"2009-04-26 00:27:00",832697,1.515,11.21,10.25,1.165,6.041,102.0592,4.554,5.734,78.1,0,109.9,13.5,5.32,333.2
"2009-04-26 00:27:30",832698,2.115,9.18,9.74,1.564,5.974,102.0575,4.55,5.789,78.2,0,109.9,13.5,5.32,331.2
"2009-04-26 00:28:00",832699,2.879,6.011,9.31,1.298,7.419,102.0586,4.553,5.812,78.26,0,109.9,13.5,5.32,328.0
"2009-04-26 00:28:30",832700,1.466,353.8,9.15,0.589,4.218,102.0583,4.552,5.696,78.15,0,109.9,13.53,5.32,315.8
"2009-04-26 00:29:00",832701,1.958,345.5,7.131,0.431,3.248,102.06,4.556,5.601,78.07,0,110,13.53,5.32,307.5
"2009-04-26 00:29:30",832702,2.865,358.8,16.88,0.79,5.778,102.0589,4.554,5.78,78.3,0,109.9,13.5,5.32,320.8
"2009-04-26 00:30:00",832703,2.754,349,10.41,1.036,4.793,102.0592,4.554,5.674,78.27,0,109.9,13.5,5.32,311.0
"2009-04-26 00:30:30",832704,3.549,353.9,8.77,1.395,6.984,102.0575,4.55,5.838,78.48,0,109.9,13.5,5.32,315.9
"2009-04-26 00:31:00",832705,3.527,350.4,7.38,1.209,6.321,102.0572,4.549,5.78,78.47,0,109.9,13.5,5.32,312.4
"2009-04-26 00:31:30",832706,3.737,350.2,8.83,1.258,6.241,102.0535,4.54,5.78,78.52,0,109.9,13.5,5.31,312.2
"2009-04-26 00:32:00",832707,2.829,353.2,13.47,1.096,5.666,102.0515,4.535,5.702,78.44,0,109.9,13.49,5.30,315.2
"2009-04-26 00:32:30",832708,1.973,342.1,5.118,0.16,3.234,102.0484,4.527,5.608,78.37,0,109.9,13.52,5.29,304.1
"2009-04-26 00:33:00",832709,1.783,357.2,8.74,0.506,4.023,102.0467,4.523,5.733,78.54,0,109.9,13.52,5.29,319.2
"2009-04-26 00:33:30",832710,3.375,17.74,6.414,1.205,7.102,102.047,4.523,5.801,78.64,0,109.9,13.5,5.29,339.7
"2009-04-26 00:34:00",832711,3.2,33.23,7.326,1.213,7.646,102.0473,4.524,5.808,78.68,0,109.9,13.49,5.29,355.2
"2009-04-26 00:34:30",832712,2.831,34.36,9.08,1.184,6.19,102.0484,4.527,5.753,78.64,0,109.9,13.49,5.29,356.4
"2009-04-26 00:35:00",832713,2.786,31.85,6.429,1.403,5.76,102.0462,4.521,5.729,78.58,0,109.9,13.5,5.29,353.9
"2009-04-26 00:35:30",832714,1.152,22.16,16.86,0.667,3.922,102.0428,4.512,5.697,78.59,0,109.9,13.5,5.28,344.2
"2009-04-26 00:36:00",832715,1.341,30.28,9,0.287,2.907,102.038,4.5,5.585,78.49,0,109.9,13.53,5.27,352.3
"2009-04-26 00:36:30",832716,1.313,32.3,3.747,0.216,3.252,102.0374,4.499,5.581,78.45,0,109.9,13.53,5.27,354.3
"2009-04-26 00:37:00",832717,1.193,22.34,6.273,0.157,3.887,102.0354,4.494,5.688,78.49,0,109.9,13.53,5.26,344.3
"2009-04-26 00:37:30",832718,3.098,31.79,6.314,1.184,7.826,102.0352,4.493,5.791,78.55,0,109.9,13.5,5.26,353.8
"2009-04-26 00:38:00",832719,2.872,29.8,6.937,1.204,7.873,102.0363,4.496,5.766,78.47,0,109.9,13.5,5.26,351.8
"2009-04-26 00:38:30",832720,3.045,33.47,8.51,1.291,7.06,102.0354,4.494,5.77,78.45,0,109.9,13.5,5.26,355.5
"2009-04-26 00:39:00",832721,2.471,9.84,6.639,1.178,4.715,102.0352,4.493,5.68,78.33,0,109.9,13.5,5.26,331.8
"2009-04-26 00:39:30",832722,1.807,6.055,4.696,0.271,3.134,102.0346,4.492,5.584,78.27,0,109.9,13.53,5.26,328.1
"2009-04-26 00:40:00",832723,1.878,11.27,6.693,0.272,3.13,102.0352,4.493,5.563,78.28,0,109.9,13.53,5.26,333.3
"2009-04-26 00:40:30",832724,1.658,358.5,4.895,0.313,3.699,102.0346,4.492,5.565,78.28,0,109.9,13.53,5.26,320.5
"2009-04-26 00:41:00",832725,3.018,22.86,11.85,1.376,5.79,102.0352,4.493,5.765,78.49,0,109.9,13.5,5.26,344.9
"2009-04-26 00:41:30",832726,3.453,25.85,10.19,1.132,8.84,102.0346,4.492,5.87,78.6,0,109.9,13.5,5.26,347.9
"2009-04-26 00:42:00",832727,3.535,19.36,7.606,0.543,9.17,102.0346,4.492,5.846,78.55,0,109.9,13.5,5.26,341.4
"2009-04-26 00:42:30",832728,1.43,9.02,7.807,0.965,4.945,102.0346,4.492,5.79,78.52,0,109.9,13.5,5.26,331.0
"2009-04-26 00:43:00",832729,2.121,16.71,3.715,0.186,2.972,102.0346,4.492,5.55,78.33,0,109.9,13.53,5.26,338.7
"2009-04-26 00:43:30",832730,2.206,18.73,3.268,0.168,3.114,102.0346,4.492,5.563,78.36,0,109.9,13.53,5.26,340.7
"2009-04-26 00:44:00",832731,1.835,13.19,4.337,0.262,3.741,102.0346,4.492,5.553,78.34,0,109.9,13.53,5.26,335.2
"2009-04-26 00:44:30",832732,4.213,24.87,8.85,1.542,6.792,102.0346,4.492,5.836,78.62,0,109.9,13.5,5.26,346.9
"2009-04-26 00:45:00",832733,5.071,28.54,4.605,0.676,9.29,102.0346,4.492,5.87,78.69,0,109.9,13.5,5.26,350.5
"2009-04-26 00:45:30",832734,4.771,25.99,4.871,0.841,9.07,102.0337,4.489,5.865,78.7,0,109.9,13.5,5.26,348.0
"2009-04-26 00:46:00",832735,3.825,19.88,5.581,1.144,6.537,102.032,4.485,5.69,78.57,0,109.9,13.5,5.25,341.9
"2009-04-26 00:46:30",832736,2.498,16.18,6.284,0.694,3.47,102.0286,4.476,5.55,78.44,0,109.9,13.53,5.24,338.2
"2009-04-26 00:47:00",832737,2.263,14.9,4.598,0.518,3.477,102.0241,4.465,5.534,78.46,0,109.9,13.53,5.23,336.9
"2009-04-26 00:47:30",832738,2.139,9.55,12.21,1.384,5.194,102.0159,4.444,5.561,78.5,0,109.9,13.5,5.21,331.5
"2009-04-26 00:48:00",832739,2.84,15.89,9.3,1.342,7.1,102.0043,4.414,5.75,78.69,0,109.9,13.5,5.18,337.9
"2009-04-26 00:48:30",832740,4.349,26.5,8.8,1.225,8.96,102.001,4.406,5.784,78.75,0,109.9,13.5,5.17,348.5
"2009-04-26 00:49:00",832741,4.344,6.944,9.16,0.99,8.05,102.0007,4.405,5.803,78.79,0,109.9,13.5,5.17,328.9
"2009-04-26 00:49:30",832742,3.535,11.84,11.18,1.505,6.509,102.0007,4.405,5.742,78.72,0,109.9,13.5,5.17,333.8
"2009-04-26 00:50:00",832743,1.874,10.34,7.247,0.495,3.452,102.0007,4.405,5.493,78.46,0,109.9,13.53,5.17,332.3
"2009-04-26 00:50:30",832744,2.109,9.82,5.431,0.369,3.552,101.9987,4.4,5.487,78.48,0,109.9,13.53,5.17,331.8
"2009-04-26 00:51:00",832745,3.039,18.38,7.383,1.152,6.516,101.9925,4.384,5.64,78.62,0,109.9,13.5,5.15,340.4
"2009-04-26 00:51:30",832746,2.898,15.03,7.02,1.292,7.089,101.9863,4.368,5.611,78.56,0,109.9,13.5,5.14,337.0
"2009-04-26 00:52:00",832747,3.149,12.87,6.151,1.27,7.675,101.9778,4.346,5.727,78.67,0,109.9,13.5,5.11,334.9
"2009-04-26 00:52:30",832748,2.647,6.44,8.07,1.216,5.678,101.967,4.319,5.721,78.63,0,109.9,13.5,5.09,328.4
"2009-04-26 00:53:00",832749,3.049,7.076,5.36,1.274,5.979,101.9679,4.321,5.526,78.43,0,109.9,13.5,5.09,329.1
"2009-04-26 00:53:30",832750,2.134,14.51,4.301,0.298,3.704,101.9676,4.321,5.567,78.5,0,109.9,13.53,5.09,336.5
"2009-04-26 00:54:00",832751,3.306,24.13,5.39,0.986,4.049,101.9676,4.321,5.418,78.38,0,109.9,13.5,5.09,346.1
"2009-04-26 00:54:30",832752,3.842,33.7,8.07,1.162,6.648,101.9595,4.3,5.661,78.66,0,109.9,13.51,5.07,355.7
"2009-04-26 00:55:00",832753,4.724,31.79,7.717,1.01,8.62,101.9504,4.277,5.682,78.68,0,109.8,13.51,5.04,353.8
"2009-04-26 00:55:30",832754,4.566,27.76,7.232,1.338,8.17,101.9406,4.252,5.629,78.66,0,109.9,13.51,5.02,349.8
"2009-04-26 00:56:00",832755,2.888,19.95,7.081,1.419,4.916,101.9415,4.254,5.385,78.48,0,109.9,13.51,5.02,342.0
"2009-04-26 00:56:30",832756,3.223,24.33,10,1.554,5.977,101.9429,4.257,5.51,78.68,0,109.9,13.5,5.02,346.3
"2009-04-26 00:57:00",832757,1.295,10.21,9.87,0.51,3.685,101.9435,4.259,5.348,78.59,0,109.9,13.54,5.03,332.2
"2009-04-26 00:57:30",832758,2.807,17.15,6.161,1.1,5.474,101.9458,4.265,5.36,78.67,0,109.9,13.51,5.03,339.1
"2009-04-26 00:58:00",832759,2.948,24.78,7.923,1.233,6.629,101.9431,4.258,5.614,78.97,0,109.9,13.51,5.02,346.8
"2009-04-26 00:58:30",832760,4.071,28.2,5.384,1.154,8.08,101.9412,4.253,5.581,78.98,0,109.9,13.51,5.02,350.2
"2009-04-26 00:59:00",832761,3.853,30.85,7.561,1.253,7.127,101.9296,4.223,5.56,78.99,0,109.8,13.51,4.99,352.9
"2009-04-26 00:59:30",832762,2.533,23.83,4.136,0.26,3.745,101.9259,4.214,5.32,78.8,0,109.8,13.54,4.98,345.8
"2009-04-26 01:00:00",832763,3.871,24.25,6.807,1.274,6.045,101.9246,4.211,5.468,79.04,0,109.8,13.51,4.98,346.2
"2009-04-26 01:00:30",832764,3.731,24.48,6.968,1.329,6.128,101.926,4.214,5.358,78.95,0,109.9,13.51,4.98,346.5
"2009-04-26 01:01:00",832765,2.985,25.82,7.434,1.054,5.233,101.9269,4.217,5.431,79.09,0,109.8,13.51,4.98,347.8
"2009-04-26 01:01:30",832766,4.956,43.61,6.384,0.899,8.83,101.9257,4.214,5.605,79.29,0,109.8,13.51,4.98,5.6
"2009-04-26 01:02:00",832767,4.557,42.63,6.054,1.216,7.646,101.917,4.191,5.502,79.25,0,109.8,13.51,4.96,4.6
"2009-04-26 01:02:30",832768,3.227,34.62,2.799,0.571,4.074,101.9009,4.15,5.267,79.08,0,109.8,13.51,4.92,356.6
"2009-04-26 01:03:00",832769,4.635,41.61,6.305,1.276,5.777,101.8981,4.143,5.298,79.14,0,109.8,13.5,4.91,3.6
"2009-04-26 01:03:30",832770,4.648,44.07,7.373,1.261,6.818,101.8947,4.134,5.48,79.4,0,109.8,13.5,4.90,6.1
"2009-04-26 01:04:00",832771,3.981,36.79,6.554,1.159,6.449,101.8868,4.114,5.305,79.32,0,109.8,13.5,4.88,358.8
"2009-04-26 01:04:30",832772,5.057,42.84,5.326,0.69,9.01,101.8783,4.093,5.52,79.61,0,109.8,13.5,4.86,4.8
"2009-04-26 01:05:00",832773,4.617,41.06,7.791,1.393,7.645,101.8659,4.061,5.432,79.67,0,109.8,13.5,4.83,3.1
"2009-04-26 01:05:30",832774,2.841,27.16,3.982,0.568,4.197,101.8657,4.06,5.161,79.51,0,109.8,13.5,4.83,349.2
"2009-04-26 01:06:00",832775,3.809,25.33,5.342,1.068,5.127,101.8595,4.044,5.147,79.6,0,109.8,13.5,4.81,347.3
"2009-04-26 01:06:30",832776,3.527,24.34,7.479,1.036,5.541,101.8518,4.025,5.222,79.78,0,109.8,13.5,4.79,346.3
"2009-04-26 01:07:00",832777,4.593,27.8,6.195,1.181,7.505,101.843,4.002,5.32,79.97,0,109.8,13.5,4.77,349.8
"2009-04-26 01:07:30",832778,4.973,30.97,4.369,0.868,9.04,101.832,3.974,5.414,80.2,0,109.8,13.5,4.74,353.0
"2009-04-26 01:08:00",832779,3.5,21.25,7.122,1.265,7.315,101.8317,3.974,5.287,80.2,0,109.8,13.51,4.74,343.2
"2009-04-26 01:08:30",832780,2.192,13.46,6.672,0.756,4.432,101.8317,3.974,5.119,80.1,0,109.8,13.51,4.74,335.5
"2009-04-26 01:09:00",832781,1.649,0.694,5.377,0.328,3.443,101.8317,3.974,5.05,80.1,0,109.8,13.54,4.74,322.7
"2009-04-26 01:09:30",832782,2.375,355.6,4.055,0.515,3.616,101.8317,3.974,5.073,80.2,0,109.8,13.55,4.74,317.6
"2009-04-26 01:10:00",832783,4.127,354.1,6.517,1.278,6.908,101.8317,3.974,5.29,80.5,0,109.8,13.51,4.74,316.1
"2009-04-26 01:10:30",832784,5.214,1.203,4.07,0.646,9.07,101.8312,3.972,5.338,80.6,0,109.8,13.51,4.74,323.2
"2009-04-26 01:11:00",832785,5.224,2.367,5.266,0.766,9.13,101.823,3.951,5.332,80.7,0,109.8,13.51,4.72,324.4
"2009-04-26 01:11:30",832786,4.39,0.946,6.517,1.27,7.725,101.8159,3.933,5.241,80.7,0,109.8,13.51,4.70,322.9
"2009-04-26 01:12:00",832787,3.094,349.4,3.739,0.568,3.412,101.8043,3.904,5.007,80.5,0,109.8,13.55,4.67,311.4
"2009-04-26 01:12:30",832788,2.889,350.7,2.783,0.459,3.344,101.7981,3.888,4.984,80.5,0,109.8,13.55,4.65,312.7
"2009-04-26 01:13:00",832789,2.432,354,4.057,0.408,3.812,101.7978,3.887,4.981,80.6,0,109.8,13.55,4.65,316.0
"2009-04-26 01:13:30",832790,3.727,5.185,8.41,1.192,7.823,101.7978,3.887,5.284,81,0,109.8,13.51,4.65,327.2
"2009-04-26 01:14:00",832791,4.17,15.9,8.43,0.74,9.14,101.7978,3.887,5.281,81,0,109.8,13.51,4.65,337.9
"2009-04-26 01:14:30",832792,4.268,26.13,6.631,0.757,8.21,101.7978,3.887,5.213,81,0,109.8,13.51,4.65,348.1
"2009-04-26 01:15:00",832793,2.246,15.57,1.866,0.205,3.707,101.7944,3.878,4.989,80.8,0,109.8,13.55,4.64,337.6
"2009-04-26 01:15:30",832794,2.253,11.46,3.718,0.277,3.244,101.7905,3.868,4.944,80.7,0,109.8,13.55,4.63,333.5
"2009-04-26 01:16:00",832795,2.397,15.09,2.335,0.351,3.48,101.7885,3.863,4.928,80.8,0,109.8,13.55,4.63,337.1
"2009-04-26 01:16:30",832796,3.318,22.26,7.01,1.305,5.444,101.784,3.852,4.923,80.8,0,109.8,13.52,4.62,344.3
"2009-04-26 01:17:00",832797,3.919,27.01,4.156,0.951,8.69,101.7783,3.837,5.217,81.1,0,109.8,13.52,4.60,349.0
"2009-04-26 01:17:30",832798,3.912,25.76,5.574,0.596,9.16,101.7744,3.827,5.228,81.1,0,109.8,13.52,4.59,347.8
"2009-04-26 01:18:00",832799,2.922,21.44,6.049,1.064,6.947,101.7659,3.805,5.174,81.1,0,109.8,13.52,4.57,343.4
"2009-04-26 01:18:30",832800,1.802,16.34,2.783,0.254,3.407,101.7642,3.801,4.914,80.9,0,109.8,13.55,4.57,338.3
"2009-04-26 01:19:00",832801,2.179,17.87,1.865,0.146,3.131,101.7639,3.8,4.915,80.9,0,109.8,13.55,4.57,339.9
"2009-04-26 01:19:30",832802,2.192,14.3,3.127,0.161,3.638,101.7639,3.8,4.91,80.9,0,109.8,13.55,4.57,336.3
"2009-04-26 01:20:00",832803,3.396,22.91,6.246,1.293,5.938,101.7639,3.8,4.94,80.9,0,109.8,13.51,4.57,344.9
"2009-04-26 01:20:30",832804,5.047,28.95,2.918,0.642,9.25,101.7639,3.8,5.223,81.2,0,109.8,13.51,4.57,351.0
"2009-04-26 01:21:00",832805,4.983,24.59,5.687,0.643,9.59,101.7639,3.8,5.217,81.2,0,109.8,13.51,4.57,346.6
"2009-04-26 01:21:30",832806,3.984,24.04,6.304,1.058,8.2,101.7639,3.8,5.213,81.2,0,109.8,13.51,4.57,346.0
"2009-04-26 01:22:00",832807,2.276,18.21,2.279,0.174,3.668,101.7639,3.8,4.902,80.9,0,109.8,13.54,4.57,340.2
"2009-04-26 01:22:30",832808,1.822,12.24,4.3,0.332,3.431,101.7639,3.8,4.884,80.9,0,109.8,13.54,4.57,334.2
"2009-04-26 01:23:00",832809,1.914,12.65,4.43,0.27,3.682,101.7639,3.8,4.903,80.9,0,109.8,13.55,4.57,334.6
"2009-04-26 01:23:30",832810,2.502,14.7,7.114,1.149,6.165,101.7639,3.8,4.994,81,0,109.8,13.51,4.57,336.7
"2009-04-26 01:24:00",832811,4.506,21.79,5.074,0.861,9.09,101.7642,3.801,5.159,81.1,0,109.8,13.51,4.57,343.8
"2009-04-26 01:24:30",832812,4.36,26.75,4.192,0.803,9.28,101.7639,3.8,5.197,81.2,0,109.8,13.52,4.57,348.8
"2009-04-26 01:25:00",832813,4.928,31.46,4.091,0.823,8.69,101.7645,3.802,5.205,81.2,0,109.8,13.52,4.57,353.5
"2009-04-26 01:25:30",832814,3.614,23.71,6.03,1.177,4.79,101.7651,3.803,4.892,80.9,0,109.8,13.52,4.57,345.7
"2009-04-26 01:26:00",832815,2.881,20.56,2.216,0.203,3.613,101.7653,3.804,4.872,80.9,0,109.8,13.55,4.57,342.6
"2009-04-26 01:26:30",832816,3.466,21.79,3.211,0.876,4.023,101.7656,3.805,4.879,81,0,109.8,13.52,4.57,343.8
"2009-04-26 01:27:00",832817,4.715,28.06,8.58,1.203,7.065,101.7653,3.804,5.073,81.2,0,109.8,13.52,4.57,350.1
"2009-04-26 01:27:30",832818,5.806,35.61,3.584,0.736,9.36,101.7674,3.809,5.206,81.4,0,109.8,13.52,4.57,357.6
"2009-04-26 01:28:00",832819,5.833,38.39,3.955,0.742,9.24,101.7699,3.816,5.197,81.4,0,109.8,13.52,4.58,0.4
"2009-04-26 01:28:30",832820,5.425,38.42,5.513,1.222,8.34,101.7697,3.815,5.204,81.4,0,109.8,13.52,4.58,0.4
"2009-04-26 01:29:00",832821,4.224,31.13,6.635,1.255,5.868,101.7666,3.807,4.891,81.1,0,109.8,13.52,4.57,353.1
"2009-04-26 01:29:30",832822,3.567,24.76,2.228,0.274,3.82,101.764,3.801,4.857,81.1,0,109.8,13.55,4.57,346.8
"2009-04-26 01:30:00",832823,4.483,29.24,7.075,1.263,5.539,101.7635,3.799,4.857,81.1,0,109.9,13.52,4.56,351.2
"2009-04-26 01:30:30",832824,5.6,34.94,5.132,1.11,8.42,101.7624,3.796,5.16,81.5,0,109.8,13.52,4.56,356.9
"2009-04-26 01:31:00",832825,5.811,37.9,3.744,0.786,9.33,101.7579,3.785,5.169,81.5,0,109.8,13.52,4.55,359.9
"2009-04-26 01:31:30",832826,6.095,36.28,3.681,0.624,9.2,101.7584,3.786,5.126,81.5,0,109.8,13.52,4.55,358.3
"2009-04-26 01:32:00",832827,4.239,21.91,4.747,0.896,4.619,101.757,3.783,4.89,81.4,0,109.8,13.52,4.55,343.9
"2009-04-26 01:32:30",832828,2.98,15.66,2.411,0.634,4.098,101.7548,3.777,4.844,81.3,0,109.8,13.55,4.54,337.7
"2009-04-26 01:33:00",832829,4.435,23.64,6.12,1.245,6.537,101.7534,3.774,5.013,81.5,0,109.8,13.52,4.54,345.6
"2009-04-26 01:33:30",832830,5.254,27.32,5.43,1.141,8.07,101.7529,3.772,5.074,81.7,0,109.8,13.52,4.54,349.3
"2009-04-26 01:34:00",832831,4.371,24.79,6.548,1.241,8.52,101.7529,3.772,5.123,81.8,0,109.8,13.52,4.54,346.8
"2009-04-26 01:34:30",832832,3.305,20.36,8.13,1.278,7.812,101.7495,3.764,5.056,81.8,0,109.8,13.52,4.53,342.4
"2009-04-26 01:35:00",832833,2.72,16.62,3.66,0.842,4.292,101.7487,3.761,4.935,81.7,0,109.8,13.52,4.53,338.6
"2009-04-26 01:35:30",832834,1.962,12.74,4.617,0.46,3.728,101.7478,3.759,4.816,81.6,0,109.8,13.55,4.52,334.7
"2009-04-26 01:36:00",832835,2.31,15.21,3.783,0.692,3.742,101.7487,3.762,4.815,81.7,0,109.8,13.55,4.53,337.2
"2009-04-26 01:36:30",832836,4.719,27.24,6.117,1.101,7.231,101.749,3.762,5.079,82,0,109.8,13.52,4.53,349.2
"2009-04-26 01:37:00",832837,5.062,29.96,5.449,0.918,8.6,101.7481,3.76,5.098,82.1,0,109.8,13.52,4.53,352.0
"2009-04-26 01:37:30",832838,5.392,29.09,4.298,0.652,9.02,101.7472,3.758,5.127,82.3,0,109.7,13.51,4.52,351.1
"2009-04-26 01:38:00",832839,3.809,21.2,5.971,1.026,6.087,101.7504,3.766,4.996,82.3,0,109.8,13.51,4.53,343.2
"2009-04-26 01:38:30",832840,4.359,23.39,6.416,1.324,5.925,101.7487,3.762,4.905,82.4,0,109.8,13.51,4.53,345.4
"2009-04-26 01:39:00",832841,3.453,15.16,1.391,0.211,3.76,101.7493,3.763,4.812,82.4,0,109.8,13.55,4.53,337.2
"2009-04-26 01:39:30",832842,4.102,20.51,5.249,1.132,5.326,101.749,3.762,4.939,82.7,0,109.8,13.51,4.53,342.5
"2009-04-26 01:40:00",832843,5.96,27.09,5.133,0.731,8.81,101.7468,3.757,5.122,83.1,0,109.8,13.52,4.52,349.1
"2009-04-26 01:40:30",832844,5.884,31.29,3.892,0.634,8.9,101.7394,3.738,5.118,83.2,0,109.8,13.52,4.50,353.3
"2009-04-26 01:41:00",832845,5.179,29.62,5.722,1.196,7.646,101.7363,3.73,5.062,83.3,0,109.7,13.52,4.50,351.6
"2009-04-26 01:41:30",832846,4.414,20.92,7.061,1.232,5.219,101.729,3.711,4.818,83.1,0,109.8,13.52,4.48,342.9
"2009-04-26 01:42:00",832847,3.195,17.06,1.645,0.245,3.928,101.721,3.691,4.836,83.2,0,109.8,13.55,4.46,339.1
"2009-04-26 01:42:30",832848,3.919,18.44,6.268,1.286,6.101,101.7191,3.686,4.95,83.4,0,109.8,13.52,4.45,340.4
"2009-04-26 01:43:00",832849,4.5,26.93,5.841,1.041,8.2,101.7234,3.697,5.084,83.6,0,109.8,13.52,4.46,348.9
"2009-04-26 01:43:30",832850,4.621,29.32,5.139,1.04,8.16,101.7228,3.695,5.059,83.6,0,109.8,13.52,4.46,351.3
"2009-04-26 01:44:00",832851,3.393,21.95,6.388,1.116,5.352,101.7231,3.696,4.916,83.5,0,109.8,13.52,4.46,344.0
"2009-04-26 01:44:30",832852,4.118,27.05,6.943,1.336,6.123,101.7231,3.696,4.93,83.6,0,109.8,13.52,4.46,349.0
"2009-04-26 01:45:00",832853,2.97,19.9,1.388,0.183,3.905,101.7214,3.692,4.754,83.4,0,109.8,13.56,4.46,341.9
"2009-04-26 01:45:30",832854,3.208,19.49,1.753,0.483,4.081,101.7169,3.68,4.765,83.5,0,109.8,13.52,4.45,341.5
"2009-04-26 01:46:00",832855,4.722,28.72,6.32,1.133,7.84,101.7155,3.677,5.038,83.8,0,109.8,13.52,4.44,350.7
"2009-04-26 01:46:30",832856,4.47,26.32,6.432,1.225,7.606,101.7143,3.674,5.04,83.8,0,109.8,13.52,4.44,348.3
"2009-04-26 01:47:00",832857,3.423,19.16,7.435,1.246,6.738,101.7124,3.669,4.896,83.8,0,109.8,13.53,4.43,341.2
"2009-04-26 01:47:30",832858,3.188,12.44,6.534,1.34,6.072,101.7019,3.642,4.882,83.8,0,109.8,13.53,4.41,334.4
"2009-04-26 01:48:00",832859,1.935,5.485,4.874,0.154,3.814,101.6977,3.631,4.762,83.7,0,109.8,13.56,4.40,327.5
"2009-04-26 01:48:30",832860,1.884,3.971,4.789,0.218,3.741,101.6963,3.628,4.79,83.8,0,109.8,13.56,4.39,326.0
"2009-04-26 01:49:00",832861,3.366,6.586,7.997,1.277,6.191,101.6946,3.624,4.793,83.8,0,109.8,13.53,4.39,328.6
"2009-04-26 01:49:30",832862,3.919,8.85,6.394,1.038,7.997,101.6915,3.615,4.97,84.1,0,109.8,13.53,4.38,330.9
"2009-04-26 01:50:00",832863,3.724,11.03,6.345,1.131,7.408,101.6952,3.625,4.962,84,0,109.8,13.53,4.39,333.0
"2009-04-26 01:50:30",832864,3.726,6.927,7.139,1.042,6.604,101.6955,3.626,4.837,83.9,0,109.8,13.53,4.39,328.9